Satellite: NOAA-12 Catalog number: 21263 Epoch time: 13038.53280520 Element set: 712 Inclination: 098.7114 deg RA of node: 064.8706 deg Eccentricity: 0.0012934 Arg of perigee: 235.9229 deg Mean anomaly: 124.0724 deg Mean motion: 14.25545572 rev/day Decay rate: 1.9e-07 rev/day^2 Epoch rev: 13008 Checksum: 272
Satellite: MET-3/5 Catalog number: 21655 Epoch time: 13038.49733702 Element set: 614 Inclination: 082.5605 deg RA of node: 345.9261 deg Eccentricity: 0.0014593 Arg of perigee: 094.4139 deg Mean anomaly: 265.8651 deg Mean motion: 13.17039456 rev/day Decay rate: 4.45e-06 rev/day^2 Epoch rev: 3286 Checksum: 310
Satellite: MET-2/21 Catalog number: 22782 Epoch time: 13038.54123713 Element set: 658 Inclination: 082.5484 deg RA of node: 205.7674 deg Eccentricity: 0.0022254 Arg of perigee: 209.9457 deg Mean anomaly: 210.0374 deg Mean motion: 13.83698324 rev/day Decay rate: -.00000000 rev/day^2 Epoch rev: 98171 Checksum: 293
Satellite: OKEAN-4 Catalog number: 23317 Epoch time: 13038.88884574 Element set: 133 Inclination: 082.5403 deg RA of node: 170.7729 deg Eccentricity: 0.0019895 Arg of perigee: 296.1687 deg Mean anomaly: 063.7482 deg Mean motion: 14.84238023 rev/day Decay rate: 7.75e-06 rev/day^2 Epoch rev: 98976 Checksum: 353
Satellite: NOAA-14 Catalog number: 23455 Epoch time: 13038.48793332 Element set: 194 Inclination: 098.8122 deg RA of node: 124.8594 deg Eccentricity: 0.0009901 Arg of perigee: 011.6600 deg Mean anomaly: 348.4801 deg Mean motion: 14.13892270 rev/day Decay rate: 2.7e-07 rev/day^2 Epoch rev: 93404 Checksum: 293
Satellite: NOAA-15 Catalog number: 25338 Epoch time: 13038.39657378 Element set: 607 Inclination: 098.7134 deg RA of node: 029.3746 deg Eccentricity: 0.0011207 Arg of perigee: 141.5111 deg Mean anomaly: 218.6877 deg Mean motion: 14.25175849 rev/day Decay rate: 9.7e-07 rev/day^2 Epoch rev: 76635 Checksum: 330
Satellite: RESURS Catalog number: 25394 Epoch time: 13038.48659571 Element set: 300 Inclination: 098.3481 deg RA of node: 020.6429 deg Eccentricity: 0.0000290 Arg of perigee: 230.4028 deg Mean anomaly: 275.8480 deg Mean motion: 14.24319924 rev/day Decay rate: -3.9e-07 rev/day^2 Epoch rev: 75789 Checksum: 304
Satellite: FENGYUN1 Catalog number: 25730 Epoch time: 13038.50441808 Element set: 802 Inclination: 098.8680 deg RA of node: 359.7167 deg Eccentricity: 0.0024686 Arg of perigee: 050.5920 deg Mean anomaly: 062.0110 deg Mean motion: 14.10144642 rev/day Decay rate: 2.217e-05 rev/day^2 Epoch rev: 70776 Checksum: 281
Satellite: OKEAN-0 Catalog number: 25860 Epoch time: 13038.51199926 Element set: 862 Inclination: 097.9742 deg RA of node: 002.8398 deg Eccentricity: 0.0001438 Arg of perigee: 133.1367 deg Mean anomaly: 338.5501 deg Mean motion: 14.74472531 rev/day Decay rate: 3.40e-06 rev/day^2 Epoch rev: 72924 Checksum: 306
Satellite: NOAA-16 Catalog number: 26536 Epoch time: 13038.37550022 Element set: 85 Inclination: 099.0623 deg RA of node: 089.7456 deg Eccentricity: 0.0011001 Arg of perigee: 138.5351 deg Mean anomaly: 221.6645 deg Mean motion: 14.12836128 rev/day Decay rate: -6.2e-07 rev/day^2 Epoch rev: 63824 Checksum: 283
Satellite: NOAA-17 Catalog number: 27453 Epoch time: 13038.25827035 Element set: 15 Inclination: 098.3198 deg RA of node: 059.1905 deg Eccentricity: 0.0011726 Arg of perigee: 182.2989 deg Mean anomaly: 177.8139 deg Mean motion: 14.24536805 rev/day Decay rate: -7.1e-07 rev/day^2 Epoch rev: 55222 Checksum: 315
Satellite: NOAA-18 Catalog number: 28654 Epoch time: 13038.30004053 Element set: 498 Inclination: 099.0804 deg RA of node: 004.7636 deg Eccentricity: 0.0013907 Arg of perigee: 211.4809 deg Mean anomaly: 148.5538 deg Mean motion: 14.11770214 rev/day Decay rate: 4.09e-06 rev/day^2 Epoch rev: 39773 Checksum: 300
Satellite: NOAA-19 Catalog number: 33591 Epoch time: 13038.36086083 Element set: 683 Inclination: 098.8896 deg RA of node: 341.5330 deg Eccentricity: 0.0014971 Arg of perigee: 077.0444 deg Mean anomaly: 283.2409 deg Mean motion: 14.11454689 rev/day Decay rate: -7.3e-07 rev/day^2 Epoch rev: 20618 Checksum: 322
/EX SB KEPS @ AMSAT $ORB13038.M Orbital Elements 13038.MISC
HR AMSAT ORBITAL ELEMENTS FOR MANNED AND MISCELLANEOUS SATELLITES FROM WA5QGD FORT WORTH,TX February 7, 2013 BID: ORB13038.M TO ALL RADIO AMATEURS BT
Satellite: HUBBLE Catalog number: 20580 Epoch time: 13038.40465337 Element set: 170 Inclination: 028.4696 deg RA of node: 043.4001 deg Eccentricity: 0.0003234 Arg of perigee: 052.3866 deg Mean anomaly: 307.7017 deg Mean motion: 15.03266818 rev/day Decay rate: 1.287e-05 rev/day^2 Epoch rev: 5014 Checksum: 260
Satellite: ISS Catalog number: 25544 Epoch time: 13038.93614072 Element set: 174 Inclination: 051.6490 deg RA of node: 030.3645 deg Eccentricity: 0.0012358 Arg of perigee: 248.5836 deg Mean anomaly: 150.6387 deg Mean motion: 15.52368154 rev/day Decay rate: 1.0588e-04 rev/day^2 Epoch rev: 81463 Checksum: 301
Satellite: CO-58 Catalog number: 28895 Epoch time: 13037.61663173 Element set: 398 Inclination: 097.8852 deg RA of node: 259.1977 deg Eccentricity: 0.0018435 Arg of perigee: 130.9886 deg Mean anomaly: 229.2924 deg Mean motion: 14.60955807 rev/day Decay rate: 4.54e-06 rev/day^2 Epoch rev: 38788 Checksum: 379
Satellite: FALCON Catalog number: 30776 Epoch time: 13038.10236435 Element set: 545 Inclination: 035.4307 deg RA of node: 279.8853 deg Eccentricity: 0.0002805 Arg of perigee: 266.1038 deg Mean anomaly: 218.5246 deg Mean motion: 15.09514188 rev/day Decay rate: 3.623e-05 rev/day^2 Epoch rev: 32574 Checksum: 294
Satellite: MAST Catalog number: 31126 Epoch time: 13037.70288317 Element set: 677 Inclination: 097.8763 deg RA of node: 041.1186 deg Eccentricity: 0.0094430 Arg of perigee: 099.5252 deg Mean anomaly: 261.6620 deg Mean motion: 14.54424692 rev/day Decay rate: 2.93e-06 rev/day^2 Epoch rev: 30835 Checksum: 302
Satellite: CAPE1 Catalog number: 31130 Epoch time: 13037.99737925 Element set: 689 Inclination: 097.8881 deg RA of node: 037.7143 deg Eccentricity: 0.0101769 Arg of perigee: 113.2160 deg Mean anomaly: 247.9804 deg Mean motion: 14.53291150 rev/day Decay rate: 3.20e-06 rev/day^2 Epoch rev: 30787 Checksum: 305
Satellite: COMPASS Catalog number: 32787 Epoch time: 13038.18404023 Element set: 537 Inclination: 097.7696 deg RA of node: 100.0622 deg Eccentricity: 0.0014754 Arg of perigee: 016.8329 deg Mean anomaly: 016.7462 deg Mean motion: 14.84965488 rev/day Decay rate: 1.427e-05 rev/day^2 Epoch rev: 25867 Checksum: 317
Satellite: AAUSAT2 Catalog number: 32788 Epoch time: 13038.16811197 Element set: 528 Inclination: 097.7701 deg RA of node: 100.5764 deg Eccentricity: 0.0014266 Arg of perigee: 016.5818 deg Mean anomaly: 041.8591 deg Mean motion: 14.85376459 rev/day Decay rate: 1.627e-05 rev/day^2 Epoch rev: 25870 Checksum: 322
Satellite: DO-64 Catalog number: 32789 Epoch time: 13037.80154071 Element set: 551 Inclination: 097.7852 deg RA of node: 103.2783 deg Eccentricity: 0.0013875 Arg of perigee: 012.6997 deg Mean anomaly: 095.7086 deg Mean motion: 14.87558126 rev/day Decay rate: 2.962e-05 rev/day^2 Epoch rev: 25873 Checksum: 345
Satellite: CO-66 Catalog number: 32791 Epoch time: 13038.70523236 Element set: 525 Inclination: 097.7699 deg RA of node: 100.0887 deg Eccentricity: 0.0015179 Arg of perigee: 015.5025 deg Mean anomaly: 130.6169 deg Mean motion: 14.84206340 rev/day Decay rate: 1.123e-05 rev/day^2 Epoch rev: 25866 Checksum: 302
Satellite: RS-30 Catalog number: 32953 Epoch time: 13038.71705421 Element set: 573 Inclination: 082.5040 deg RA of node: 148.6960 deg Eccentricity: 0.0019534 Arg of perigee: 152.5654 deg Mean anomaly: 207.6466 deg Mean motion: 12.43031205 rev/day Decay rate: 1.0e-07 rev/day^2 Epoch rev: 21382 Checksum: 265
Satellite: METEOR-M Catalog number: 35865 Epoch time: 13038.53564654 Element set: 199 Inclination: 098.6214 deg RA of node: 094.0343 deg Eccentricity: 0.0003286 Arg of perigee: 085.7604 deg Mean anomaly: 274.3950 deg Mean motion: 14.21879334 rev/day Decay rate: -4.4e-07 rev/day^2 Epoch rev: 17604 Checksum: 311
Satellite: RS-38 Catalog number: 35869 Epoch time: 13038.66098288 Element set: 166 Inclination: 098.6166 deg RA of node: 094.1064 deg Eccentricity: 0.0005457 Arg of perigee: 086.8424 deg Mean anomaly: 273.3378 deg Mean motion: 14.22111916 rev/day Decay rate: 8.0e-08 rev/day^2 Epoch rev: 17608 Checksum: 333
Satellite: JUGNU Catalog number: 37839 Epoch time: 13036.00862693 Element set: 326 Inclination: 019.9625 deg RA of node: 027.7096 deg Eccentricity: 0.0018428 Arg of perigee: 267.7051 deg Mean anomaly: 092.1140 deg Mean motion: 14.12125238 rev/day Decay rate: 6.20e-06 rev/day^2 Epoch rev: 6819 Checksum: 289
Satellite: SRMSAT Catalog number: 37841 Epoch time: 13037.58368656 Element set: 327 Inclination: 019.9711 deg RA of node: 027.6398 deg Eccentricity: 0.0012125 Arg of perigee: 242.9394 deg Mean anomaly: 116.9882 deg Mean motion: 14.10198093 rev/day Decay rate: 2.64e-06 rev/day^2 Epoch rev: 6831 Checksum: 313
Satellite: RAX-2 Catalog number: 37853 Epoch time: 13038.88400595 Element set: 420 Inclination: 101.7115 deg RA of node: 192.7634 deg Eccentricity: 0.0239131 Arg of perigee: 037.6357 deg Mean anomaly: 324.1310 deg Mean motion: 14.82318508 rev/day Decay rate: 2.093e-05 rev/day^2 Epoch rev: 6928 Checksum: 288
Satellite: AUBIESAT Catalog number: 37854 Epoch time: 13038.89770775 Element set: 418 Inclination: 101.7149 deg RA of node: 193.3969 deg Eccentricity: 0.0239455 Arg of perigee: 036.5585 deg Mean anomaly: 325.1691 deg Mean motion: 14.82912249 rev/day Decay rate: 2.259e-05 rev/day^2 Epoch rev: 6929 Checksum: 349
